Time,TemperatureF,DewpointF,PressureIn,WindDirection,WindDirectionDegrees,WindSpeedMPH,WindSpeedGustMPH,Humidity,HourlyPrecipIn,Conditions,Clouds,dailyrainin,SoftwareType,DateUTC
2013-04-27 00:12:00,49.8,-47.1,30.36,ESE,112,0.0,-999.0,1,-99.99,,,0.00,Acu-Link.com,2013-04-27 04:12:00,
2013-04-27 00:27:00,48.9,-47.6,30.36,ESE,112,0.0,-999.0,1,-99.99,,,0.00,Acu-Link.com,2013-04-27 04:27:00,
2013-04-27 00:43:00,48.2,-48.1,30.35,ESE,112,1.7,-999.0,1,-99.99,,,0.00,Acu-Link.com,2013-04-27 04:43:00,
2013-04-27 00:58:00,48.2,-48.1,30.35,SE,135,0.0,-999.0,1,-99.99,,,0.00,Acu-Link.com,2013-04-27 04:58:00,
2013-04-27 01:13:00,48.4,-47.9,30.35,SE,135,0.0,-999.0,1,-99.99,,,0.00,Acu-Link.com,2013-04-27 05:13:00,
2013-04-27 01:28:00,47.8,-48.3,30.35,SE,135,0.0,-999.0,1,-99.99,,,0.00,Acu-Link.com,2013-04-27 05:28:00,
2013-04-27 01:44:00,48.7,-47.7,30.34,SE,135,0.0,-999.0,1,-99.99,,,0.00,Acu-Link.com,2013-04-27 05:44:00,
2013-04-27 01:59:00,49.1,-47.5,30.34,SE,135,0.0,-999.0,1,-99.99,,,0.00,Acu-Link.com,2013-04-27 05:59:00,
2013-04-27 02:15:00,48.9,-47.6,30.34,SE,135,0.0,-999.0,1,-99.99,,,0.00,Acu-Link.com,2013-04-27 06:15:00,
2013-04-27 02:30:00,48.0,-48.2,30.34,SE,135,0.0,-999.0,1,-99.99,,,0.00,Acu-Link.com,2013-04-27 06:30:00,
2013-04-27 02:45:00,47.8,47.3,30.34,SE,135,0.0,-999.0,98,-99.99,,,0.00,Acu-Link.com,2013-04-27 06:45:00,
2013-04-27 03:00:00,47.8,47.3,30.33,SE,135,0.0,-999.0,98,-99.99,,,0.00,Acu-Link.com,2013-04-27 07:00:00,
2013-04-27 03:16:00,48.0,47.5,30.34,SE,135,0.0,-999.0,98,-99.99,,,0.00,Acu-Link.com,2013-04-27 07:16:00,
2013-04-27 03:31:00,48.6,48.1,30.34,SE,135,1.1,-999.0,98,-99.99,,,0.00,Acu-Link.com,2013-04-27 07:31:00,
2013-04-27 03:46:00,47.7,47.2,30.34,SE,135,0.0,-999.0,98,-99.99,,,0.00,Acu-Link.com,2013-04-27 07:46:00,
2013-04-27 04:01:00,47.3,46.8,30.34,SE,135,0.0,-999.0,98,-99.99,,,0.00,Acu-Link.com,2013-04-27 08:01:00,
2013-04-27 04:17:00,47.3,46.8,30.34,SE,135,0.0,-999.0,98,-99.99,,,0.00,Acu-Link.com,2013-04-27 08:17:00,
2013-04-27 04:32:00,47.7,19.3,30.34,SE,135,1.7,-999.0,32,-99.99,,,0.00,Acu-Link.com,2013-04-27 08:32:00,
2013-04-27 04:47:00,46.4,42.4,30.33,SE,135,0.0,-999.0,86,-99.99,,,0.00,Acu-Link.com,2013-04-27 08:47:00,
2013-04-27 05:02:00,46.2,43.1,30.34,SE,135,0.0,-999.0,89,-99.99,,,0.00,Acu-Link.com,2013-04-27 09:02:00,
2013-04-27 05:17:00,46.2,45.7,30.33,SE,135,0.0,-999.0,98,-99.99,,,0.00,Acu-Link.com,2013-04-27 09:17:00,
2013-04-27 05:33:00,45.9,45.4,30.33,SE,135,0.0,-999.0,98,-99.99,,,0.00,Acu-Link.com,2013-04-27 09:33:00,
2013-04-27 05:48:00,45.5,45.0,30.33,SE,135,0.0,-999.0,98,-99.99,,,0.00,Acu-Link.com,2013-04-27 09:48:00,
2013-04-27 06:03:00,45.0,44.5,30.34,SE,135,0.0,-999.0,98,-99.99,,,0.00,Acu-Link.com,2013-04-27 10:03:00,
2013-04-27 06:18:00,44.6,44.1,30.35,SE,135,0.0,-999.0,98,-99.99,,,0.00,Acu-Link.com,2013-04-27 10:18:00,
2013-04-27 06:34:00,44.4,43.9,30.35,SE,135,0.0,-999.0,98,-99.99,,,0.00,Acu-Link.com,2013-04-27 10:34:00,
2013-04-27 06:49:00,44.8,44.3,30.36,SE,135,0.0,-999.0,98,-99.99,,,0.00,Acu-Link.com,2013-04-27 10:49:00,
2013-04-27 07:04:00,45.9,45.4,30.36,SE,135,1.1,-999.0,98,-99.99,,,0.00,Acu-Link.com,2013-04-27 11:04:00,
2013-04-27 07:19:00,48.2,47.7,30.37,North,0,1.1,-999.0,98,-99.99,,,0.00,Acu-Link.com,2013-04-27 11:19:00,
2013-04-27 07:35:00,49.8,24.6,30.37,North,0,0.0,-999.0,37,-99.99,,,0.00,Acu-Link.com,2013-04-27 11:35:00,
2013-04-27 07:51:00,51.3,50.8,30.37,NNE,22,1.7,-999.0,98,-99.99,,,0.00,Acu-Link.com,2013-04-27 11:51:00,
2013-04-27 08:06:00,53.4,52.8,30.37,NNE,22,2.7,-999.0,98,-99.99,,,0.00,Acu-Link.com,2013-04-27 12:06:00,
2013-04-27 08:21:00,56.1,21.7,30.38,NNE,22,2.7,-999.0,26,-99.99,,,0.00,Acu-Link.com,2013-04-27 12:21:00,
2013-04-27 08:37:00,57.0,-42.7,30.38,NW,315,4.7,-999.0,1,-99.99,,,0.00,Acu-Link.com,2013-04-27 12:37:00,
2013-04-27 08:52:00,57.6,-42.3,30.38,NNW,337,3.7,-999.0,1,-99.99,,,0.00,Acu-Link.com,2013-04-27 12:52:00,
2013-04-27 09:07:00,59.4,-41.2,30.38,East,90,3.7,-999.0,1,-99.99,,,0.00,Acu-Link.com,2013-04-27 13:07:00,
2013-04-27 09:22:00,60.6,-40.5,30.38,East,90,4.2,-999.0,1,-99.99,,,0.00,Acu-Link.com,2013-04-27 13:22:00,
2013-04-27 09:37:00,60.3,-40.7,30.38,East,90,2.7,-999.0,1,-99.99,,,0.00,Acu-Link.com,2013-04-27 13:37:00,
2013-04-27 09:52:00,59.0,-41.5,30.38,NE,45,4.7,-999.0,1,-99.99,,,0.00,Acu-Link.com,2013-04-27 13:52:00,
2013-04-27 10:08:00,57.7,22.1,30.38,NE,45,4.7,-999.0,25,-99.99,,,0.00,Acu-Link.com,2013-04-27 14:08:00,
2013-04-27 10:23:00,58.3,25.3,30.38,ENE,67,4.7,-999.0,28,-99.99,,,0.00,Acu-Link.com,2013-04-27 14:23:00,
2013-04-27 10:38:00,57.6,-42.3,30.38,NE,45,4.7,-999.0,1,-99.99,,,0.00,Acu-Link.com,2013-04-27 14:38:00,
2013-04-27 10:53:00,59.0,-41.5,30.39,East,90,5.3,-999.0,1,-99.99,,,0.00,Acu-Link.com,2013-04-27 14:53:00,
2013-04-27 11:09:00,58.6,-41.7,30.39,NE,45,6.8,-999.0,1,-99.99,,,0.00,Acu-Link.com,2013-04-27 15:09:00,
2013-04-27 11:24:00,59.0,-41.5,30.39,ESE,112,3.2,-999.0,1,-99.99,,,0.00,Acu-Link.com,2013-04-27 15:24:00,
2013-04-27 11:39:00,59.2,-41.3,30.39,ENE,67,2.7,-999.0,1,-99.99,,,0.00,Acu-Link.com,2013-04-27 15:39:00,
2013-04-27 11:54:00,58.8,-41.6,30.38,NE,45,5.8,-999.0,1,-99.99,,,0.00,Acu-Link.com,2013-04-27 15:54:00,
2013-04-27 12:10:00,59.5,-41.2,30.37,NE,45,5.3,-999.0,1,-99.99,,,0.00,Acu-Link.com,2013-04-27 16:10:00,
2013-04-27 12:25:00,58.6,-41.7,30.37,NE,45,5.3,-999.0,1,-99.99,,,0.01,Acu-Link.com,2013-04-27 16:25:00,
2013-04-27 12:40:00,58.5,-41.8,30.36,NE,45,6.8,-999.0,1,-99.99,,,0.01,Acu-Link.com,2013-04-27 16:40:00,
2013-04-27 12:55:00,59.0,-41.5,30.36,NE,45,5.8,-999.0,1,-99.99,,,0.01,Acu-Link.com,2013-04-27 16:55:00,
2013-04-27 13:10:00,59.4,-41.2,30.36,East,90,5.8,-999.0,1,-99.99,,,0.01,Acu-Link.com,2013-04-27 17:10:00,
2013-04-27 13:25:00,58.3,-41.9,30.36,ENE,67,4.7,-999.0,1,-99.99,,,0.01,Acu-Link.com,2013-04-27 17:25:00,
2013-04-27 13:41:00,57.7,-42.3,30.35,NE,45,7.3,-999.0,1,-99.99,,,0.01,Acu-Link.com,2013-04-27 17:41:00,
2013-04-27 13:56:00,58.1,-42.0,30.35,NE,45,5.8,-999.0,1,-99.99,,,0.01,Acu-Link.com,2013-04-27 17:56:00,
2013-04-27 14:11:00,58.1,-42.0,30.34,ENE,67,6.3,-999.0,1,-99.99,,,0.01,Acu-Link.com,2013-04-27 18:11:00,
2013-04-27 14:26:00,58.1,-42.0,30.34,NE,45,6.8,-999.0,1,-99.99,,,0.01,Acu-Link.com,2013-04-27 18:26:00,
2013-04-27 14:41:00,57.9,-42.1,30.33,NE,45,3.2,-999.0,1,-99.99,,,0.01,Acu-Link.com,2013-04-27 18:41:00,
2013-04-27 14:56:00,58.3,-41.9,30.32,SSE,157,4.7,-999.0,1,-99.99,,,0.01,Acu-Link.com,2013-04-27 18:56:00,
2013-04-27 15:12:00,58.5,-41.8,30.31,SSE,157,4.7,-999.0,1,-99.99,,,0.01,Acu-Link.com,2013-04-27 19:12:00,
2013-04-27 15:27:00,59.4,-41.2,30.31,East,90,4.2,-999.0,1,-99.99,,,0.01,Acu-Link.com,2013-04-27 19:27:00,
2013-04-27 15:42:00,59.0,19.1,30.31,East,90,3.7,-999.0,21,-99.99,,,0.01,Acu-Link.com,2013-04-27 19:42:00,
2013-04-27 15:57:00,58.8,-41.6,30.31,NNE,22,2.7,-999.0,1,-99.99,,,0.01,Acu-Link.com,2013-04-27 19:57:00,
2013-04-27 16:13:00,59.7,-41.0,30.31,ESE,112,2.7,-999.0,1,-99.99,,,0.01,Acu-Link.com,2013-04-27 20:13:00,
2013-04-27 16:28:00,59.9,-40.9,30.30,SE,135,2.7,-999.0,1,-99.99,,,0.01,Acu-Link.com,2013-04-27 20:28:00,
2013-04-27 16:43:00,59.7,-41.0,30.29,SSE,157,3.2,-999.0,1,-99.99,,,0.01,Acu-Link.com,2013-04-27 20:43:00,
2013-04-27 16:59:00,58.8,-41.6,30.29,SSE,157,3.7,-999.0,1,-99.99,,,0.01,Acu-Link.com,2013-04-27 20:59:00,
2013-04-27 17:14:00,59.4,-41.2,30.29,SSE,157,5.8,-999.0,1,-99.99,,,0.01,Acu-Link.com,2013-04-27 21:14:00,
2013-04-27 17:29:00,59.7,-41.0,30.29,ESE,112,4.7,-999.0,1,-99.99,,,0.01,Acu-Link.com,2013-04-27 21:29:00,
2013-04-27 17:44:00,60.1,-40.8,30.28,ESE,112,3.2,-999.0,1,-99.99,,,0.01,Acu-Link.com,2013-04-27 21:44:00,
2013-04-27 18:00:00,59.7,-41.0,30.28,ESE,112,4.2,-999.0,1,-99.99,,,0.01,Acu-Link.com,2013-04-27 22:00:00,
2013-04-27 18:15:00,59.5,-41.2,30.28,ESE,112,3.2,-999.0,1,-99.99,,,0.01,Acu-Link.com,2013-04-27 22:15:00,
2013-04-27 18:30:00,60.4,-40.6,30.28,SE,135,4.2,-999.0,1,-99.99,,,0.01,Acu-Link.com,2013-04-27 22:30:00,
2013-04-27 18:46:00,60.1,-40.8,30.28,ESE,112,2.2,-999.0,1,-99.99,,,0.01,Acu-Link.com,2013-04-27 22:46:00,
2013-04-27 19:01:00,59.2,-41.3,30.28,ESE,112,2.7,-999.0,1,-99.99,,,0.01,Acu-Link.com,2013-04-27 23:01:00,
2013-04-27 19:16:00,58.3,-41.9,30.28,SE,135,0.0,-999.0,1,-99.99,,,0.01,Acu-Link.com,2013-04-27 23:16:00,
2013-04-27 19:32:00,57.2,-42.6,30.28,ESE,112,0.0,-999.0,1,-99.99,,,0.01,Acu-Link.com,2013-04-27 23:32:00,
2013-04-27 19:47:00,55.9,-43.3,30.28,ESE,112,0.0,-999.0,1,-99.99,,,0.01,Acu-Link.com,2013-04-27 23:47:00,
2013-04-27 20:02:00,55.6,-43.5,30.27,ENE,67,1.1,-999.0,1,-99.99,,,0.01,Acu-Link.com,2013-04-28 00:02:00,
2013-04-27 20:17:00,55.2,-43.8,30.28,ENE,67,1.1,-999.0,1,-99.99,,,0.01,Acu-Link.com,2013-04-28 00:17:00,
2013-04-27 20:32:00,54.7,-14.9,30.28,ENE,67,0.0,-999.0,5,-99.99,,,0.01,Acu-Link.com,2013-04-28 00:32:00,
2013-04-27 20:48:00,54.1,-8.6,30.29,ESE,112,0.0,-999.0,7,-99.99,,,0.01,Acu-Link.com,2013-04-28 00:48:00,
2013-04-27 21:03:00,53.2,-25.7,30.29,ESE,112,0.0,-999.0,3,-99.99,,,0.01,Acu-Link.com,2013-04-28 01:03:00,
2013-04-27 21:18:00,53.2,18.3,30.29,ESE,112,0.0,-999.0,25,-99.99,,,0.01,Acu-Link.com,2013-04-28 01:18:00,
2013-04-27 21:34:00,52.7,51.3,30.29,ESE,112,0.0,-999.0,95,-99.99,,,0.01,Acu-Link.com,2013-04-28 01:34:00,
2013-04-27 21:49:00,52.3,51.8,30.29,ESE,112,2.7,-999.0,98,-99.99,,,0.01,Acu-Link.com,2013-04-28 01:49:00,
2013-04-27 22:04:00,52.2,51.7,30.29,ESE,112,0.0,-999.0,98,-99.99,,,0.01,Acu-Link.com,2013-04-28 02:04:00,
2013-04-27 22:20:00,51.6,51.1,30.29,ESE,112,0.0,-999.0,98,-99.99,,,0.01,Acu-Link.com,2013-04-28 02:20:00,
2013-04-27 22:35:00,51.4,30.8,30.28,ESE,112,0.0,-999.0,45,-99.99,,,0.01,Acu-Link.com,2013-04-28 02:35:00,
2013-04-27 22:50:00,51.3,50.8,30.28,ESE,112,1.1,-999.0,98,-99.99,,,0.01,Acu-Link.com,2013-04-28 02:50:00,
2013-04-27 23:05:00,51.1,-46.3,30.28,ESE,112,0.0,-999.0,1,-99.99,,,0.01,Acu-Link.com,2013-04-28 03:05:00,
2013-04-27 23:21:00,50.9,25.6,30.27,ESE,112,2.2,-999.0,37,-99.99,,,0.01,Acu-Link.com,2013-04-28 03:21:00,
2013-04-27 23:36:00,50.9,50.4,30.27,ESE,112,2.7,-999.0,98,-99.99,,,0.01,Acu-Link.com,2013-04-28 03:36:00,
2013-04-27 23:51:00,51.1,50.6,30.27,SE,135,0.0,-999.0,98,-99.99,,,0.01,Acu-Link.com,2013-04-28 03:51:00,